Location: L�Ave Maria
(50.7161°N, 1.5911°E)
Time: 00:28:28
(UTC+00:00)

CREW DRAGON DEMO-1 DEB - Pass Details

Date: 10 July 2020
Orbit: 369 x 372 km, 51.6° (Epoch: 03 August)

Event Time Altitude Azimuth Distance (km) Brightness Sun altitude
Rises 23:22:01 0° 272° (W) 2,225 6.9 -16.8°
Reaches altitude 10° 23:24:04 10° 274° (W) 1,374 5.8 -16.8°
Maximum altitude 23:27:08 71° 360° (N) 396 3.0 -16.9°
Drops below altitude 10° 23:30:11 10° 85° (E) 1,371 5.6 -16.9°
Sets 23:32:13 0° 87° (E) 2,219 6.7 -17.0°
